Location: Lombard
(41.8800°N, 88.0080°W)
Time: 05:32:16
(UTC-05:00)

Vanguard 2 Rocket - Pass Details

Date: 29 February 2024
Orbit: 555 x 3307 km, 32.9° (Epoch: 12 April)

Event Time Altitude Azimuth Distance (km) Brightness Sun altitude
Rises 18:40:06 0° 274° (W) 5,429 13.0 -11.6°
Reaches altitude 10° 18:43:41 10° 265° (W) 4,782 12.1 -12.3°
Maximum altitude 18:56:02 34° 208° (SSW) 4,071 10.4 -14.6°
Drops below altitude 10° 19:12:20 10° 153° (SSE) 6,249 10.8 -17.6°
Sets 19:18:00 0° 145° (SE) 7,252 11.1 -18.7°
